Location: Владивосток
(43.1151°N, 131.8856°E)
Time: 22:02:42
(UTC+10:00)

DX 1 - Pass Details

Date: 09 July 2022
Orbit: 617 x 629 km, 98.4° (Epoch: 10 August)

Event Time Altitude Azimuth Distance (km) Brightness Sun altitude
Rises 23:44:16 0° 356° (N) 2,925 ? -21.1°
Reaches altitude 10° 23:47:10 10° 336° (NNW) 2,010 ? -21.3°
Maximum altitude 23:49:52 16° 297° (WNW) 1,626 ? -21.5°
Drops below altitude 10° 23:52:33 10° 259° (W) 1,997 ? -21.7°
Enters shadow 23:55:19 - 239° (WSW) 2,860 ? -21.9°
